[[{"header":{"parameterUnit":"m.s-1","parameterCategory":1,"la1":30.2991,"la2":30.254,"lo1":-89.0895,"lo2":-89.0444,"dy":0.0017,"dx":0.0017,"nx":28,"ny":28,"refTime":"2024-04-29T09:00:00:Z","depth":0,"parameterNumber":2,"parameterNumberName":"U-component_of_WINDS"},"data":[0,0,0,0,0,0,0,0,0,0,0,0,0,0,0,0,0,0,0,0,0,0,0,0,0,0,0,0,0,0,0,0,0,0,0,0,0,0,0,0,0,0,0,0,0,0,0,0,0,0,0,0,0,0,0,0,0,0,-5.906,-5.9061,0,-5.9172,-5.9173,-5.9174,-5.9179,-5.9178,-5.9177,-5.9175,-5.9286,-5.929,-5.9294,0,0,0,0,0,0,0,0,0,0,0,0,0,-5.8848,-5.8852,-5.906,-5.9061,-5.9063,-5.9171,-5.9173,-5.9174,-5.9179,-5.9178,-5.9176,-5.9175,-5.9284,-5.9289,-5.9294,0,0,0,0,0,0,0,0,0,0,0,0,0,-5.8948,-5.8853,-5.906,-5.9079,-5.9081,-5.9171,-5.9173,-5.9175,-5.918,-5.9178,-5.9176,-5.9174,-5.9283,-5.9289,-5.9295,-5.9372,0,0,-5.9314,-5.9316,0,0,0,0,0,0,0,0,-5.8942,-5.8955,-5.9074,-5.9077,-5.9081,-5.916,-5.9139,-5.9241,-5.918,-5.9142,-5.9175,-5.9173,-5.9245,-5.9254,-5.9279,-5.9377,-5.9382,-5.9314,-5.9318,-5.9321,-5.9323,0,0,0,0,0,0,0,-5.8935,-5.8951,-5.9104,-5.9076,-5.908,-5.908,-5.9092,-5.9158,-5.9203,-5.9145,-5.9146,-5.9159,-5.9246,-5.9273,-5.9282,-5.9384,-5.9314,-5.932,-5.9324,-5.9326,-5.955,-5.9552,0,0,0,0,0,0,-5.8925,-5.8945,-5.91,-5.9107,-5.9005,-5.9086,-5.9099,-5.9136,-5.9202,-5.9211,-5.9161,-5.9159,-5.9264,-5.9275,-5.9286,-5.938,-5.9321,-5.9327,-5.933,-5.9548,-5.955,-5.9553,0,0,0,0,0,0,-5.8921,-5.8939,-5.9096,-5.9026,-5.9046,-5.9091,-5.9133,-5.9139,-5.9166,-5.9214,-5.9222,-5.918,-5.9262,-5.9277,-5.9351,-5.9383,-5.9329,-5.9335,-5.9545,-5.9549,-5.9552,-5.9569,0,0,0,0,0,0,-5.8914,-5.8937,-5.8968,-5.9027,-5.905,-5.916,-5.9135,-5.9143,-5.9177,-5.9176,-5.9234,-5.9242,-5.9262,-5.9341,-5.9357,-5.9391,-5.934,-5.9542,-5.9547,-5.9551,-5.9565,-5.9572,-5.9578,0,0,0,0,0,-5.8907,-5.8968,-5.8969,-5.8988,-5.909,-5.9162,-5.9175,-5.9198,-5.918,-5.9211,-5.9241,-5.924,-5.9378,-5.9349,-5.9366,-5.9403,-5.954,-5.9545,-5.955,-5.9562,-5.9571,-5.9578,0,0,0,0,0,0,-5.891,-5.8976,-5.8978,-5.906,-5.9106,-5.9163,-5.9202,-5.9206,-5.9256,-5.9253,-5.9278,-5.9291,-5.9364,-5.9391,-5.9358,-5.9481,-5.9457,-5.9466,-5.946,-5.9468,-5.9475,-5.9465,-5.9345,0,0,0,0,0,-5.892,-5.8975,-5.9029,-5.9096,-5.9119,-5.9157,-5.9189,-5.9203,-5.925,-5.9269,-5.9305,-5.935,-5.9403,-5.9438,-5.949,-5.957,-5.9582,-5.9604,-5.961,-5.9615,-5.9622,-5.9665,-5.9675,-5.9569,-5.9569,-5.9569,0,0,-5.8942,-5.8984,-5.9017,-5.9098,-5.9134,-5.9189,-5.9173,-5.9231,-5.9271,-5.9277,-5.9349,-5.9377,-5.9429,-5.9506,-5.9542,-5.9531,-5.9654,-5.9621,-5.9625,-5.9629,-5.9671,-5.9681,-5.969,-5.9573,-5.9572,-5.9571,0,0,-5.9008,-5.9047,-5.9107,-5.9144,-5.92,-5.9225,-5.924,-5.9297,-5.9316,-5.9389,-5.9394,-5.9442,-5.9534,-5.957,-5.9601,-5.9682,-5.9682,-5.9698,-5.973,-5.9772,-5.978,-5.9788,-5.9815,-5.9825,-5.9705,-5.9705,-5.9705,0,-5.9027,-5.9111,-5.9136,-5.9195,-5.923,-5.924,-5.9299,-5.9334,-5.9404,-5.9427,-5.9414,-5.9529,-5.9565,-5.965,-5.967,-5.9695,-5.9711,-5.969,-5.9778,-5.9785,-5.9792,-5.9819,-5.9829,-5.9706,-5.9706,-5.9706,-5.9706,0,-5.9131,-5.9189,-5.923,-5.9298,-5.9338,-5.9397,-5.943,-5.9467,-5.9477,-5.9503,-5.9576,-5.962,-5.968,-5.9702,-5.9713,-5.9789,-5.978,-5.9773,-5.9748,-5.9803,-5.9828,-5.9839,-5.9709,-5.9708,-5.9708,-5.9707,0,0,-5.9201,-5.9284,-5.9298,-5.9329,-5.9392,-5.9436,-5.9495,-5.9556,-5.9586,-5.9634,-5.9683,-5.9761,-5.9754,-5.9789,-5.9804,-5.9841,-5.99,-5.9828,-5.983,-5.9838,-5.9985,-5.9989,-6.0,-5.9902,-5.9904,-5.9906,-5.998,0,-5.9273,-5.938,-5.9404,-5.9495,-5.9547,-5.9558,-5.9609,-5.9652,-5.9678,-5.9726,-5.9754,-5.9808,-5.9797,-5.9817,-5.9855,-5.9885,-5.993,-5.988,-5.9946,-5.9948,-5.993,-6.0013,-6.0018,-6.0085,-5.999,-5.9992,-5.9993,0,-5.9372,-5.9423,-5.9519,-5.9574,-5.9598,-5.9643,-5.97,-5.9746,-5.9795,-5.9812,-5.9851,-5.9862,-5.9922,-5.9897,-5.998,-5.9946,-5.9974,-5.9993,-5.9996,-6.0001,-5.9972,-6.0019,-6.0108,-6.0117,-6.0009,-6.0008,-6.0006,0,-5.9411,-5.9504,-5.9573,-5.9599,-5.9667,-5.9698,-5.9727,-5.9775,-5.9809,-5.9859,-5.9881,-5.9937,-5.9967,-6.0009,-6.0035,-6.0014,-6.0115,-6.0092,-6.0128,-6.0127,-6.0147,-6.0145,-6.024,-6.0169,-6.0169,-6.0169,-6.0168,0,-5.9488,-5.9546,-5.9592,-5.9634,-5.9699,-5.9726,-5.9789,-5.9818,-5.986,-5.9908,-5.992,-5.9964,-5.9996,-6.0044,-6.0065,-6.0129,-6.0143,-6.0156,-6.016,-6.0154,-6.0152,-6.0171,-6.0166,-6.0171,-6.0171,-6.017,-6.017,0,-5.9542,-5.9576,-5.9651,-5.9709,-5.9725,-5.977,-5.9818,-5.9859,-5.9886,-5.9945,-5.9961,-6.0002,-6.0059,-6.0089,-6.0161,-6.0174,-6.0246,-6.0249,-6.0229,-6.0231,-6.0264,-6.026,-6.0373,-6.0389,-6.0309,-6.031,-6.0311,0,-5.9588,-5.9633,-5.9696,-5.9729,-5.9759,-5.9812,-5.9847,-5.9876,-5.9912,-5.9972,-6.0005,-6.0063,-6.0111,-6.0201,-6.0237,-6.0291,-6.0294,-6.033,-6.0302,-6.0293,-6.0292,-6.0288,-6.0292,-6.0334,-6.0334,-6.0335,-6.0336,0,-5.9666,-5.968,-5.9732,-5.9788,-5.983,-5.9876,-5.9922,-5.9948,-5.9984,-6.0024,-6.0083,-6.012,-6.0193,-6.0249,-6.0307,-6.0335,-6.0341,-6.0345,-6.0355,-6.0348,-6.0334,-6.034,-6.024,-6.0341,-6.0341,-6.034,-6.034,-6.034,-5.9717,-5.9757,-5.9807,-5.9863,-5.99,-5.9942,-5.9983,-6.0015,-6.0065,-6.0127,-6.0141,-6.0203,-6.025,-6.0328,-6.0358,-6.0406,-6.0399,-6.0415,-6.0419,-6.0422,-6.0422,-6.0328,-6.0417,-6.0417,-6.0417,-6.0417,-6.0417,0,-5.9794,-5.9827,-5.9878,-5.9941,-5.9985,-5.9989,-6.0039,-6.0075,-6.0129,-6.0174,-6.0221,-6.0288,-6.0343,-6.0383,-6.0439,-6.0469,-6.0473,-6.0483,-6.048,-6.0486,-6.0427,-6.0411,-6.0479,-6.0479,-6.0479,-6.0479,-6.0479,-6.0479,-5.9839,-5.9906,-5.9926,-6.0011,-6.0043,-6.0105,-6.0133,-6.0171,-6.0206,-6.0281,-6.0327,-6.0354,-6.0396,-6.0455,-6.0505,-6.0516,-6.0535,-6.0544,-6.0554,-6.0497,-6.049,-6.0484,-6.0469,-6.0548,-6.0548,-6.0609,-6.061,-6.061]},{"header":{"parameterUnit":"m.s-1","parameterCategory":1,"la1":30.2991,"la2":30.254,"lo1":-89.0895,"lo2":-89.0444,"dy":0.0017,"dx":0.0017,"nx":28,"ny":28,"refTime":"2024-04-29T09:00:00:Z","depth":0,"parameterNumber":3,"parameterNumberName":"V-component_of_WINDS"},"data":[0,0,0,0,0,0,0,0,0,0,0,0,0,0,0,0,0,0,0,0,0,0,0,0,0,0,0,0,0,0,0,0,0,0,0,0,0,0,0,0,0,0,0,0,0,0,0,0,0,0,0,0,0,0,0,0,0,0,4.829,4.8292,0,4.8466,4.8468,4.847,4.8551,4.8551,4.8551,4.8551,4.8729,4.8734,4.8739,0,0,0,0,0,0,0,0,0,0,0,0,0,4.8025,4.8029,4.829,4.8292,4.8294,4.8465,4.8468,4.847,4.8551,4.8551,4.8551,4.8551,4.8728,4.8733,4.8739,0,0,0,0,0,0,0,0,0,0,0,0,0,4.8164,4.8031,4.8289,4.8355,4.8363,4.8465,4.8468,4.8471,4.8551,4.8551,4.8551,4.8551,4.8726,4.8733,4.874,4.8789,0,0,4.8762,4.8765,0,0,0,0,0,0,0,0,4.8156,4.8174,4.8343,4.8351,4.836,4.8486,4.844,4.8577,4.8551,4.848,4.8551,4.8551,4.8648,4.8662,4.8695,4.8797,4.8805,4.8763,4.8767,4.877,4.8773,0,0,0,0,0,0,0,4.8146,4.8167,4.8359,4.8346,4.8356,4.8376,4.8396,4.8466,4.8563,4.8486,4.8492,4.8512,4.8653,4.8688,4.87,4.8808,4.8763,4.8769,4.8774,4.8777,4.8961,4.8961,0,0,0,0,0,0,4.8126,4.8158,4.8354,4.8365,4.8255,4.8381,4.8403,4.8446,4.8562,4.858,4.8512,4.8515,4.8676,4.8691,4.8707,4.8774,4.877,4.8777,4.8781,4.896,4.8961,4.8961,0,0,0,0,0,0,4.812,4.8143,4.8347,4.8263,4.8291,4.8386,4.8433,4.8449,4.8485,4.8582,4.86,4.853,4.8676,4.8696,4.8769,4.8781,4.8781,4.8787,4.896,4.896,4.8961,4.8906,0,0,0,0,0,0,4.8112,4.814,4.8159,4.8263,4.8295,4.8405,4.8434,4.8453,4.8497,4.8503,4.8604,4.8621,4.8678,4.8757,4.8776,4.8791,4.8793,4.8959,4.896,4.8961,4.8907,4.8905,4.8903,0,0,0,0,0,4.8102,4.8136,4.816,4.8183,4.8321,4.8406,4.8424,4.849,4.8498,4.8519,4.8582,4.8617,4.8776,4.8764,4.8785,4.8803,4.8959,4.896,4.8961,4.8908,4.8906,4.8903,0,0,0,0,0,0,4.8031,4.8151,4.8179,4.8247,4.8316,4.8419,4.8447,4.8484,4.8551,4.8554,4.8632,4.8654,4.8719,4.8768,4.8752,4.8858,4.8871,4.8876,4.8823,4.8822,4.8819,4.8807,4.8799,0,0,0,0,0,4.8023,4.8082,4.8184,4.8234,4.8267,4.8351,4.8391,4.8435,4.8509,4.8539,4.8607,4.8677,4.8743,4.8785,4.8851,4.8915,4.8939,4.8937,4.8935,4.8933,4.8937,4.8977,4.8978,4.8965,4.8965,4.8965,0,0,4.8007,4.808,4.8113,4.8222,4.828,4.834,4.8375,4.8436,4.8482,4.8548,4.8621,4.8673,4.8757,4.8825,4.8859,4.8868,4.8946,4.8934,4.8932,4.8938,4.8978,4.8979,4.898,4.8966,4.8966,4.8966,0,0,4.801,4.8071,4.8121,4.8179,4.8267,4.8323,4.8335,4.8434,4.8472,4.8546,4.8598,4.8652,4.8764,4.8822,4.8866,4.8892,4.8929,4.8912,4.8901,4.8938,4.8939,4.894,4.8951,4.8954,4.8915,4.8915,4.8915,0,4.798,4.8072,4.8141,4.8201,4.8248,4.8311,4.8363,4.8416,4.8521,4.8552,4.8561,4.8704,4.8764,4.8849,4.8855,4.8888,4.8905,4.8901,4.8933,4.8935,4.8938,4.8949,4.8953,4.8913,4.8913,4.8913,4.8913,0,4.8031,4.8094,4.8124,4.8225,4.8275,4.833,4.8408,4.8451,4.8491,4.8546,4.8622,4.8697,4.878,4.8803,4.8843,4.8894,4.8897,4.8918,4.8933,4.8935,4.8947,4.8952,4.8909,4.891,4.8911,4.8911,0,0,4.7993,4.8134,4.8143,4.8191,4.8294,4.8344,4.8402,4.8485,4.852,4.8591,4.8642,4.8736,4.8757,4.8807,4.8854,4.8886,4.8905,4.8905,4.8908,4.8903,4.8968,4.8952,4.8956,4.8929,4.893,4.8931,4.8961,0,4.8012,4.812,4.8184,4.8266,4.8326,4.8388,4.8439,4.8507,4.856,4.8619,4.8678,4.8744,4.8766,4.8797,4.8832,4.8895,4.8919,4.8894,4.8978,4.8981,4.8957,4.8962,4.8945,4.897,4.8966,4.8967,4.8968,0,4.8047,4.8118,4.8205,4.8304,4.8331,4.8376,4.8458,4.8513,4.8592,4.8629,4.8685,4.8733,4.8797,4.8806,4.8896,4.8878,4.8916,4.8953,4.8955,4.8967,4.8975,4.8975,4.898,4.8984,4.8975,4.8975,4.8974,0,4.8013,4.813,4.8198,4.8237,4.8352,4.8382,4.8432,4.8511,4.8557,4.8628,4.8659,4.8736,4.8779,4.8838,4.8905,4.8905,4.8989,4.9003,4.9022,4.902,4.9038,4.9036,4.905,4.906,4.906,4.906,4.906,0,4.8028,4.8079,4.8185,4.8227,4.8287,4.8361,4.8418,4.8473,4.8543,4.8597,4.8655,4.8704,4.8789,4.8849,4.8902,4.897,4.8988,4.902,4.9034,4.9016,4.9012,4.9043,4.9043,4.9061,4.9061,4.906,4.906,0,4.8,4.8073,4.8151,4.8255,4.8282,4.8322,4.8411,4.8454,4.851,4.8578,4.8598,4.8687,4.8761,4.8833,4.8932,4.8968,4.9036,4.9053,4.9009,4.9017,4.9032,4.903,4.9068,4.9077,4.9078,4.9078,4.9078,0,4.8005,4.8047,4.8155,4.8196,4.8244,4.8309,4.8356,4.8431,4.8478,4.8573,4.8605,4.8684,4.875,4.8866,4.8939,4.9015,4.9036,4.9044,4.9047,4.9029,4.9038,4.9035,4.904,4.9042,4.9041,4.9041,4.9041,0,4.8007,4.8041,4.8108,4.8188,4.8243,4.8309,4.8378,4.8407,4.8495,4.8546,4.8623,4.8674,4.8776,4.8854,4.8939,4.899,4.903,4.9039,4.9048,4.903,4.9004,4.902,4.9005,4.9038,4.9038,4.9038,4.9038,4.9039,4.7997,4.8038,4.8121,4.8194,4.8253,4.8316,4.8363,4.8425,4.8491,4.858,4.862,4.8698,4.8778,4.8897,4.8947,4.9009,4.902,4.9032,4.9035,4.9037,4.9034,4.8993,4.9025,4.9025,4.9025,4.9025,4.9026,0,4.8004,4.806,4.8127,4.8221,4.8279,4.8312,4.839,4.8436,4.8504,4.8575,4.864,4.8729,4.8805,4.8884,4.8965,4.8999,4.902,4.9018,4.9017,4.9028,4.9019,4.9005,4.9,4.9,4.9,4.9,4.9,4.9,4.8014,4.8085,4.8129,4.823,4.8287,4.8364,4.8406,4.8465,4.8522,4.8619,4.8683,4.8735,4.881,4.8897,4.8968,4.8989,4.9017,4.901,4.9037,4.9027,4.9029,4.903,4.9017,4.9015,4.9015,4.9041,4.9041,4.9041]}]]